DW8749 Weather Reports


Display with metric or nautical units.
time (UTC)temp
F
wind
direction
speed
MPH
gust
MPH
rain 1hr
in
rain 24hr
in
rain mn
in
humidity
%
barometer
mb
20260905022508 89 111 4.0 8.0 0.00 0.00 0.00 48 1012.9
20260905022007 89 138 2.0 9.0 0.00 0.00 0.00 48 1012.7
20260905021513 89 134 4.0 9.0 0.00 0.00 0.00 48 1012.7
20260905021012 89 128 5.0 10.0 0.00 0.00 0.00 47 1012.6
20260905020509 89 146 5.0 10.0 0.00 0.00 0.00 47 1012.5
20260905020026 89 127 3.0 11.0 0.00 0.00 0.00 47 1012.3
20260905015514 90 148 6.0 11.0 0.00 0.00 0.00 46 1012.1
20260905015013 90 148 6.0 11.0 0.00 0.00 0.00 46 1012.1
20260905014530 90 137 5.0 9.0 0.00 0.00 0.00 46 1012.0
20260905014014 90 136 5.0 9.0 0.00 0.00 0.00 45 1012.0
20260905013506 90 133 6.0 10.0 0.00 0.00 0.00 45 1011.9
20260905013007 91 133 4.0 11.0 0.00 0.00 0.00 44 1011.7
20260905012506 91 107 3.0 11.0 0.00 0.00 0.00 44 1011.7
20260905012010 91 126 5.0 11.0 0.00 0.00 0.00 44 1011.6
20260905011519 92 143 5.0 11.0 0.00 0.00 0.00 43 1011.6
20260905011011 92 140 6.0 10.0 0.00 0.00 0.00 42 1011.6
20260905010511 92 140 3.0 11.0 0.00 0.00 0.00 42 1011.6
20260905010022 92 144 4.0 11.0 0.00 0.00 0.00 42 1011.7
20260905005514 93 113 5.0 12.0 0.00 0.00 0.00 41 1011.7
20260905005017 93 111 5.0 12.0 0.00 0.00 0.00 41 1011.6
20260905004529 93 153 7.0 11.0 0.00 0.00 0.00 40 1011.5
20260905004005 93 126 5.0 12.0 0.00 0.00 0.00 40 1011.4
20260905003509 94 124 6.0 14.0 0.00 0.00 0.00 39 1011.4
20260905003012 94 155 7.0 14.0 0.00 0.00 0.00 39 1011.4
20260905002510 94 148 7.0 15.0 0.00 0.00 0.00 39 1011.4
20260905002009 95 146 5.0 15.0 0.00 0.00 0.00 38 1011.5
20260905001520 95 133 10.0 15.0 0.00 0.00 0.00 38 1011.5
20260905001011 95 144 6.0 14.0 0.00 0.00 0.00 37 1011.5
20260905000515 96 155 7.0 16.0 0.00 0.00 0.00 37 1011.4
20260905000027 96 124 9.0 19.0 0.00 0.00 0.00 37 1011.2
20260904235515 96 146 10.0 19.0 0.00 0.00 0.00 36 1011.3
20260904235015 97 129 10.0 17.0 0.00 0.00 0.00 35 1011.3
20260904234522 97 93 9.0 15.0 0.00 0.00 0.00 34 1011.2
20260904234007 97 132 6.0 13.0 0.00 0.00 0.00 35 1011.1
20260904233505 97 162 5.0 17.0 0.00 0.00 0.00 35 1011.2
20260904233014 97 105 10.0 17.0 0.00 0.00 0.00 34 1011.2
20260904232512 97 138 12.0 16.0 0.00 0.00 0.00 33 1011.1
20260904232011 98 161 9.0 17.0 0.00 0.00 0.00 33 1011.1
20260904231521 98 131 8.0 17.0 0.00 0.00 0.00 33 1011.1
20260904231014 98 119 11.0 17.0 0.00 0.00 0.00 33 1011.0
20260904230515 98 143 8.0 16.0 0.00 0.00 0.00 32 1011.0
20260904230030 98 82 7.0 17.0 0.00 0.00 0.00 33 1010.9
20260904225519 98 119 7.0 17.0 0.00 0.00 0.00 32 1010.9
20260904225018 98 144 11.0 17.0 0.00 0.00 0.00 32 1011.0
20260904224508 99 121 8.0 17.0 0.00 0.00 0.00 32 1011.0
20260904224008 99 124 9.0 16.0 0.00 0.00 0.00 32 1010.9
20260904223508 99 151 10.0 16.0 0.00 0.00 0.00 32 1011.0
20260904223018 99 96 9.0 14.0 0.00 0.00 0.00 33 1011.0
20260904222514 99 113 8.0 17.0 0.00 0.00 0.00 33 1011.0
20260904222015 99 119 7.0 17.0 0.00 0.00 0.00 33 1010.9
20260904221533 99 147 9.0 16.0 0.00 0.00 0.00 33 1011.0
20260904221017 99 159 8.0 16.0 0.00 0.00 0.00 33 1010.9
20260904220515 99 159 7.0 15.0 0.00 0.00 0.00 33 1010.8
20260904220032 99 157 6.0 15.0 0.00 0.00 0.00 32 1010.8
20260904215517 99 155 7.0 19.0 0.00 0.00 0.00 33 1010.8
20260904215007 100 115 10.0 19.0 0.00 0.00 0.00 33 1010.9
20260904214514 100 150 8.0 15.0 0.00 0.00 0.00 34 1010.9
20260904214011 99 159 9.0 16.0 0.00 0.00 0.00 34 1011.0
20260904213511 100 138 9.0 16.0 0.00 0.00 0.00 34 1011.0
20260904213019 100 148 6.0 16.0 0.00 0.00 0.00 33 1011.0
20260904212513 100 167 10.0 16.0 0.00 0.00 0.00 34 1011.1
20260904212015 100 138 9.0 16.0 0.00 0.00 0.00 33 1011.1
20260904211528 100 165 10.0 17.0 0.00 0.00 0.00 34 1011.0
20260904211016 100 146 6.0 16.0 0.00 0.00 0.00 35 1011.0
20260904210516 100 192 8.0 15.0 0.00 0.00 0.00 34 1011.2
20260904210035 99 360 6.0 17.0 0.00 0.00 0.00 35 1011.2
20260904205516 100 360 10.0 17.0 0.00 0.00 0.00 34 1011.2
20260904205013 100 360 8.0 16.0 0.00 0.00 0.00 34 1011.3
20260904204517 100 138 7.0 15.0 0.00 0.00 0.00 36 1011.4
20260904204009 99 125 6.0 16.0 0.00 0.00 0.00 36 1011.4
20260904203512 99 86 9.0 16.0 0.00 0.00 0.00 36 1011.3
20260904203033 99 360 6.0 18.0 0.00 0.00 0.00 37 1011.4
20260904202517 99 165 9.0 18.0 0.00 0.00 0.00 37 1011.4
20260904202019 99 142 4.0 15.0 0.00 0.00 0.00 39 1011.4
20260904201531 99 138 8.0 16.0 0.00 0.00 0.00 39 1011.4
20260904201016 99 172 8.0 16.0 0.00 0.00 0.00 38 1011.6
20260904200515 99 138 9.0 16.0 0.00 0.00 0.00 38 1011.7
20260904200015 99 119 7.0 14.0 0.00 0.00 0.00 38 1011.6
20260904195513 99 180 7.0 15.0 0.00 0.00 0.00 40 1011.7
20260904195009 99 157 9.0 15.0 0.00 0.00 0.00 39 1011.7
20260904194519 98 136 7.0 17.0 0.00 0.00 0.00 38 1011.8
20260904194012 98 136 6.0 17.0 0.00 0.00 0.00 40 1011.8
20260904193512 98 153 10.0 15.0 0.00 0.00 0.00 39 1011.9
20260904193029 98 164 5.0 14.0 0.00 0.00 0.00 40 1012.0
20260904192516 97 112 9.0 14.0 0.00 0.00 0.00 39 1012.1
20260904192005 97 164 5.0 14.0 0.00 0.00 0.00 41 1012.2
20260904191507 97 136 7.0 15.0 0.00 0.00 0.00 41 1012.2
20260904191008 97 161 7.0 15.0 0.00 0.00 0.00 40 1012.3
20260904190510 97 165 5.0 13.0 0.00 0.00 0.00 41 1012.3
20260904190018 96 360 6.0 15.0 0.00 0.00 0.00 42 1012.4
20260904185511 96 360 10.0 15.0 0.00 0.00 0.00 44 1012.4
20260904185012 97 143 9.0 15.0 0.00 0.00 0.00 43 1012.4
20260904184521 96 360 8.0 15.0 0.00 0.00 0.00 44 1012.5
20260904184016 97 201 6.0 15.0 0.00 0.00 0.00 43 1012.5
20260904183515 96 190 7.0 15.0 0.00 0.00 0.00 45 1012.5
20260904183031 96 171 5.0 13.0 0.00 0.00 0.00 45 1012.6
20260904182517 96 202 5.0 13.0 0.00 0.00 0.00 47 1012.7
20260904182009 95 198 3.0 15.0 0.00 0.00 0.00 47 1012.6
20260904181511 95 360 7.0 14.0 0.00 0.00 0.00 47 1012.8
20260904181008 95 360 4.0 14.0 0.00 0.00 0.00 50 1012.9
20260904180510 94 360 9.0 15.0 0.00 0.00 0.00 48 1012.9
20260904180017 94 134 4.0 15.0 0.00 0.00 0.00 51 1012.9
20260904175512 93 210 6.0 13.0 0.00 0.00 0.00 52 1012.9
20260904175012 93 112 9.0 13.0 0.00 0.00 0.00 51 1013.0
20260904174529 93 171 6.0 12.0 0.00 0.00 0.00 51 1013.1
20260904174016 93 166 5.0 12.0 0.00 0.00 0.00 52 1013.1
20260904173517 92 360 7.0 15.0 0.00 0.00 0.00 53 1013.1
20260904173033 92 360 7.0 15.0 0.00 0.00 0.00 54 1013.2
20260904172510 92 360 5.0 15.0 0.00 0.00 0.00 55 1013.2
20260904172006 91 111 3.0 13.0 0.00 0.00 0.00 56 1013.2
20260904171514 91 360 8.0 13.0 0.00 0.00 0.00 55 1013.3
20260904171008 91 138 6.0 15.0 0.00 0.00 0.00 56 1013.3
20260904170512 90 194 8.0 15.0 0.00 0.00 0.00 56 1013.3
20260904170023 90 360 7.0 15.0 0.00 0.00 0.00 56 1013.4
20260904165514 90 161 9.0 15.0 0.00 0.00 0.00 56 1013.5
20260904165016 90 172 8.0 13.0 0.00 0.00 0.00 57 1013.5
20260904164530 90 159 7.0 14.0 0.00 0.00 0.00 57 1013.5
20260904164017 89 180 8.0 14.0 0.00 0.00 0.00 58 1013.5
20260904163520 89 360 7.0 14.0 0.00 0.00 0.00 59 1013.5
20260904163007 89 360 7.0 14.0 0.00 0.00 0.00 59 1013.4
20260904162507 89 360 7.0 17.0 0.00 0.00 0.00 59 1013.4
20260904162008 89 188 8.0 17.0 0.00 0.00 0.00 59 1013.3
20260904161515 89 192 6.0 14.0 0.00 0.00 0.00 60 1013.4
20260904161012 88 190 7.0 15.0 0.00 0.00 0.00 59 1013.3
20260904160515 88 165 6.0 15.0 0.00 0.00 0.00 60 1013.3
20260904160042 88 196 5.0 13.0 0.00 0.00 0.00 61 1013.2
20260904155517 88 186 5.0 13.0 0.00 0.00 0.00 62 1013.2
20260904155017 87 360 6.0 14.0 0.00 0.00 0.00 63 1013.2
20260904154534 86 360 5.0 14.0 0.00 0.00 0.00 64 1013.2
20260904154018 86 217 7.0 12.0 0.00 0.00 0.00 65 1013.2
20260904153515 85 360 6.0 15.0 0.00 0.00 0.00 66 1013.3
20260904153014 85 189 7.0 15.0 0.00 0.00 0.00 66 1013.2
20260904152508 85 360 4.0 13.0 0.00 0.00 0.00 67 1013.2
20260904152012 84 203 6.0 13.0 0.00 0.00 0.00 68 1013.2
20260904151525 83 171 7.0 13.0 0.00 0.00 0.00 69 1013.3
20260904151017 83 360 7.0 13.0 0.00 0.00 0.00 70 1013.2
20260904150514 82 154 7.0 15.0 0.00 0.00 0.00 70 1013.2
20260904150040 82 360 6.0 15.0 0.00 0.00 0.00 71 1013.2
20260904145522 82 360 7.0 15.0 0.00 0.00 0.00 71 1013.2
20260904145019 82 198 6.0 15.0 0.00 0.00 0.00 71 1013.2
20260904144532 81 222 8.0 13.0 0.00 0.00 0.00 72 1013.3
20260904144015 81 360 6.0 13.0 0.00 0.00 0.00 73 1013.3
20260904143509 80 189 7.0 16.0 0.00 0.00 0.00 73 1013.3
20260904143016 80 188 9.0 16.0 0.00 0.00 0.00 74 1013.3
20260904142513 79 360 5.0 14.0 0.00 0.00 0.00 75 1013.3
20260904142012 79 203 7.0 12.0 0.00 0.00 0.00 76 1013.2
20260904141529 78 148 5.0 12.0 0.00 0.00 0.00 77 1013.3
20260904141014 78 360 6.0 12.0 0.00 0.00 0.00 77 1013.3
20260904140514 78 172 5.0 12.0 0.00 0.00 0.00 78 1013.3
20260904140042 77 138 6.0 14.0 0.00 0.00 0.00 78 1013.3
20260904135516 77 153 8.0 15.0 0.00 0.00 0.00 79 1013.3
20260904135019 76 209 7.0 15.0 0.00 0.00 0.00 80 1013.2
20260904134537 76 192 5.0 15.0 0.00 0.00 0.00 80 1013.1
20260904134007 76 195 7.0 15.0 0.00 0.00 0.00 81 1013.1
20260904133510 75 167 4.0 11.0 0.00 0.00 0.00 81 1013.1
20260904133018 75 360 5.0 11.0 0.00 0.00 0.00 81 1013.1
20260904132514 75 190 4.0 12.0 0.00 0.00 0.00 81 1013.0
20260904132014 75 134 4.0 13.0 0.00 0.00 0.00 81 1012.9
20260904131527 75 167 6.0 13.0 0.00 0.00 0.00 81 1012.9
20260904131015 75 190 3.0 10.0 0.00 0.00 0.00 82 1012.8
20260904130518 75 153 6.0 10.0 0.00 0.00 0.00 82 1012.9
20260904130044 75 360 2.0 10.0 0.00 0.00 0.00 82 1012.9
20260904125516 75 180 4.0 10.0 0.00 0.00 0.00 81 1012.8
20260904125016 75 192 4.0 11.0 0.00 0.00 0.00 81 1012.7
20260904124536 75 143 6.0 11.0 0.00 0.00 0.00 81 1012.7
20260904124011 74 117 3.0 8.0 0.00 0.00 0.00 82 1012.7
20260904123510 74 360 3.0 8.0 0.00 0.00 0.00 82 1012.8
20260904123024 74 360 3.0 10.0 0.00 0.00 0.00 82 1012.7
20260904122515 74 360 5.0 10.0 0.00 0.00 0.00 82 1012.6
20260904122020 74 360 4.0 11.0 0.00 0.00 0.00 81 1012.5
20260904121531 74 173 6.0 11.0 0.00 0.00 0.00 81 1012.5
20260904121018 74 360 6.0 9.0 0.00 0.00 0.00 81 1012.4
20260904120518 75 160 5.0 9.0 0.00 0.00 0.00 81 1012.4
20260904120033 75 360 3.0 8.0 0.00 0.00 0.00 81 1012.5
20260904115517 75 156 4.0 8.0 0.00 0.00 0.00 80 1012.4
20260904115017 75 360 3.0 8.0 0.00 0.00 0.00 80 1012.4
20260904114519 75 150 3.0 8.0 0.00 0.00 0.00 80 1012.4
20260904114012 75 121 2.0 8.0 0.00 0.00 0.00 80 1012.4
20260904113513 75 360 3.0 8.0 0.00 0.00 0.00 80 1012.3
20260904113033 75 153 3.0 8.0 0.00 0.00 0.00 80 1012.4
20260904112515 75 198 4.0 8.0 0.00 0.00 0.00 80 1012.5
20260904112019 75 360 4.0 7.0 0.00 0.00 0.00 79 1012.5
20260904111538 75 360 3.0 8.0 0.00 0.00 0.00 79 1012.5
20260904111015 75 165 4.0 8.0 0.00 0.00 0.00 79 1012.6
20260904110518 75 189 2.0 8.0 0.00 0.00 0.00 79 1012.6
20260904110016 76 360 2.0 8.0 0.00 0.00 0.00 78 1012.6
20260904105512 76 160 3.0 8.0 0.00 0.00 0.00 78 1012.5
20260904105012 76 159 3.0 8.0 0.00 0.00 0.00 78 1012.6
20260904104526 76 161 4.0 12.0 0.00 0.00 0.00 78 1012.5
20260904104014 76 202 3.0 12.0 0.00 0.00 0.00 77 1012.5
20260904103514 76 169 3.0 7.0 0.00 0.00 0.00 77 1012.4
20260904103007 76 208 4.0 11.0 0.00 0.00 0.00 77 1012.4
20260904102507 76 209 6.0 11.0 0.00 0.00 0.00 77 1012.4
20260904102006 76 186 5.0 9.0 0.00 0.00 0.00 76 1012.3
20260904101511 76 360 3.0 9.0 0.00 0.00 0.00 76 1012.3
20260904101009 77 150 5.0 10.0 0.00 0.00 0.00 76 1012.3
20260904100509 77 360 5.0 10.0 0.00 0.00 0.00 76 1012.4
20260904100018 77 360 4.0 12.0 0.00 0.00 0.00 75 1012.3
20260904095511 77 169 5.0 13.0 0.00 0.00 0.00 75 1012.3
20260904095015 77 138 5.0 13.0 0.00 0.00 0.00 75 1012.3
20260904094528 77 188 5.0 11.0 0.00 0.00 0.00 74 1012.3
20260904094014 77 360 6.0 14.0 0.00 0.00 0.00 74 1012.3
20260904093502 77 150 4.0 14.0 0.00 0.00 0.00 74 1012.2
20260904093004 78 360 4.0 12.0 0.00 0.00 0.00 74 1012.2
20260904092508 78 360 6.0 12.0 0.00 0.00 0.00 73 1012.1
20260904092009 78 174 4.0 11.0 0.00 0.00 0.00 73 1012.1
20260904091516 78 188 5.0 14.0 0.00 0.00 0.00 73 1012.0
20260904091011 78 209 4.0 14.0 0.00 0.00 0.00 72 1012.2
20260904090512 78 154 8.0 14.0 0.00 0.00 0.00 72 1012.2
20260904090020 78 360 4.0 14.0 0.00 0.00 0.00 72 1012.2
20260904085514 78 162 7.0 14.0 0.00 0.00 0.00 71 1012.2
20260904085014 79 205 5.0 13.0 0.00 0.00 0.00 71 1012.0
20260904084530 79 178 7.0 15.0 0.00 0.00 0.00 71 1011.9
20260904084018 79 159 4.0 15.0 0.00 0.00 0.00 70 1011.9
20260904083505 79 181 6.0 11.0 0.00 0.00 0.00 70 1012.0
20260904083007 79 163 6.0 17.0 0.00 0.00 0.00 70 1012.0
20260904082509 79 155 7.0 17.0 0.00 0.00 0.00 69 1012.0
20260904082012 79 360 7.0 15.0 0.00 0.00 0.00 69 1011.9
20260904081518 80 360 7.0 14.0 0.00 0.00 0.00 69 1012.0
20260904081013 80 360 8.0 17.0 0.00 0.00 0.00 68 1012.0
20260904080516 80 182 6.0 18.0 0.00 0.00 0.00 68 1011.9
20260904080026 80 163 8.0 18.0 0.00 0.00 0.00 68 1012.0
20260904075514 80 170 7.0 16.0 0.00 0.00 0.00 68 1012.1
20260904075014 80 195 6.0 16.0 0.00 0.00 0.00 67 1012.0
20260904074535 80 175 7.0 15.0 0.00 0.00 0.00 67 1012.0
20260904074005 80 142 7.0 15.0 0.00 0.00 0.00 67 1011.9
20260904073509 80 170 6.0 17.0 0.00 0.00 0.00 67 1012.0
20260904073014 80 144 7.0 17.0 0.00 0.00 0.00 66 1012.1
20260904072507 81 195 6.0 16.0 0.00 0.00 0.00 66 1012.1
20260904072010 81 162 8.0 16.0 0.00 0.00 0.00 66 1012.2
20260904071524 81 138 7.0 11.0 0.00 0.00 0.00 66 1012.2
20260904071014 81 157 5.0 14.0 0.00 0.00 0.00 65 1012.2
20260904070514 81 169 6.0 14.0 0.00 0.00 0.00 65 1012.2
20260904070030 81 156 7.0 14.0 0.00 0.00 0.00 65 1012.1
20260904065518 81 157 7.0 14.0 0.00 0.00 0.00 64 1012.2
20260904065018 81 192 8.0 16.0 0.00 0.00 0.00 64 1012.2
20260904064512 81 175 5.0 17.0 0.00 0.00 0.00 64 1012.1
20260904064008 81 159 5.0 17.0 0.00 0.00 0.00 64 1012.1
20260904063507 82 159 6.0 13.0 0.00 0.00 0.00 63 1012.2
20260904063021 82 171 7.0 14.0 0.00 0.00 0.00 63 1012.1
20260904062510 82 200 6.0 14.0 0.00 0.00 0.00 62 1012.2
20260904062014 82 178 7.0 15.0 0.00 0.00 0.00 62 1012.0
20260904061526 82 180 8.0 15.0 0.00 0.00 0.00 62 1012.0
20260904061017 82 159 7.0 17.0 0.00 0.00 0.00 62 1011.9
20260904060514 82 173 7.0 17.0 0.00 0.00 0.00 61 1011.9
20260904060030 83 221 7.0 15.0 0.00 0.00 0.00 61 1011.8
20260904055515 83 193 8.0 15.0 0.00 0.00 0.00 61 1011.8
20260904055015 83 171 7.0 21.0 0.00 0.00 0.00 60 1011.8
20260904054515 83 155 9.0 21.0 0.00 0.00 0.00 60 1011.7
20260904054007 83 218 8.0 16.0 0.00 0.00 0.00 59 1011.6
20260904053510 83 160 6.0 18.0 0.00 0.00 0.00 59 1011.6
20260904053025 83 209 10.0 18.0 0.00 0.00 0.00 59 1011.6
20260904052514 84 173 7.0 18.0 0.00 0.00 0.00 58 1011.5
20260904052012 84 155 7.0 18.0 0.00 0.00 0.00 58 1011.4
20260904051551 84 172 8.0 19.0 0.00 0.00 0.00 58 1011.6
20260904051016 84 159 8.0 19.0 0.00 0.00 0.00 57 1011.4
20260904050517 84 174 7.0 16.0 0.00 0.00 0.00 57 1011.3
20260904050031 84 159 9.0 17.0 0.00 0.00 0.00 57 1011.3
20260904045519 85 155 8.0 18.0 0.00 0.00 0.00 56 1011.3
20260904045007 85 143 9.0 21.0 0.00 0.00 0.00 56 1011.2
20260904044516 85 169 11.0 23.0 0.00 0.00 0.00 55 1011.2
20260904044013 85 145 7.0 23.0 0.00 0.00 0.00 55 1011.2
20260904043512 85 128 9.0 20.0 0.00 0.00 0.00 54 1011.1
20260904043025 86 138 9.0 20.0 0.00 0.00 0.00 54 1011.2
20260904042517 86 159 12.0 17.0 0.00 0.00 0.00 54 1011.2
20260904042015 86 173 9.0 18.0 0.00 0.00 0.00 53 1011.1
20260904041531 86 202 10.0 18.0 0.00 0.00 0.00 53 1011.1
20260904041015 86 131 9.0 20.0 0.00 0.00 0.00 52 1011.0
20260904040520 86 161 10.0 17.0 0.00 0.00 0.00 52 1010.9
20260904040035 87 148 8.0 17.0 0.00 0.00 0.00 51 1010.9
20260904035517 87 167 10.0 18.0 0.00 0.00 0.00 51 1011.0
20260904035009 87 164 8.0 19.0 0.00 0.00 0.00 50 1011.0
20260904034517 87 132 10.0 19.0 0.00 0.00 0.00 50 1011.0
20260904034012 87 167 9.0 18.0 0.00 0.00 0.00 49 1010.9
20260904033512 88 153 9.0 18.0 0.00 0.00 0.00 49 1010.9
20260904033031 88 149 10.0 18.0 0.00 0.00 0.00 48 1010.9
20260904032513 88 176 10.0 18.0 0.00 0.00 0.00 47 1010.9
20260904032015 88 167 8.0 18.0 0.00 0.00 0.00 47 1010.7
20260904031529 89 128 11.0 20.0 0.00 0.00 0.00 46 1010.8
20260904031017 89 138 11.0 20.0 0.00 0.00 0.00 46 1010.7
20260904030518 89 136 11.0 18.0 0.00 0.00 0.00 45 1010.7
20260904030035 89 175 12.0 19.0 0.00 0.00 0.00 45 1010.6
20260904025510 89 141 10.0 19.0 0.00 0.00 0.00 44 1010.4
20260904025010 90 144 9.0 17.0 0.00 0.00 0.00 44 1010.4
20260904024516 90 150 10.0 20.0 0.00 0.00 0.00 43 1010.4
20260904024002 90 163 12.0 20.0 0.00 0.00 0.00 43 1010.3
20260904023505 90 150 9.0 19.0 0.00 0.00 0.00 43 1010.2
20260904023004 90 138 10.0 19.0 0.00 0.00 0.00 43 1010.1